Regional Weather Roundup
Issued by NWS Jackson, KY

Home | Current Version | Previous Version | Graphics & Text | Print | Product List | Glossary On
Versions: 1 2 3 4 5 6 7 8 9 10 11 12 13 14 15 16 17 18 19 20 21 22 23 24 25 26 27 28 29 30 31 32 33 34 35 36 37 38 39 40 41 42 43 44 45 46 47 48 49 50
000
ASUS43 KJKL 260010
RWRJKL

EAST KENTUCKY HOURLY WEATHER ROUNDUP
NATIONAL WEATHER SERVICE JACKSON KY
800 PM EDT FRI MAY 25 2018

NOTE: "FAIR" INDICATES FEW OR NO CLOUDS BELOW 12,000 FEET WITH
NO SIGNIFICANT WEATHER AND/OR OBSTRUCTIONS TO VISIBILITY.

* THESE REPORTS ARE NOT UNDER NWS QUALITY CONTROL AND MAY NOT
  REPORT WEATHER SUCH AS PRECIPITATION AND FOG.

KYZ079-080-083-085-087-088-110-112-115-119-120-260100
...EASTERN KENTUCKY...

CITY           SKY/WX    TMP DP  RH WIND       PRES   REMARKS
JACKSON          N/A     81  66  60 CALM      29.93S
6HR MIN TEMP:  77; 6HR MAX TEMP:  87; 6HR PCP: TRACE;

LONDON           N/A     83  66  56 S6        29.93R
6HR MIN TEMP:  82; 6HR MAX TEMP:  88;

SOMERSET*        N/A     81  61  50 MISG      29.92S
MONTICELLO*      N/A     84  65  52 W14       29.93R
6HR MIN TEMP:  84; 6HR MAX TEMP:  89;

WILLIAMSBURG*    N/A     73  72  94 CALM      29.93S
MIDDLESBORO*     N/A     82  67  61 S3        29.94S
6HR MIN TEMP:  82; 6HR MAX TEMP:  87;

HARLAN APT*      N/A     80  64  58 CALM      29.96R
PIKE CO APT*     N/A     76  76 100 NW6       29.94S
BIG SANDY APT*   N/A     77  72  85 CALM      29.93S
6HR MIN TEMP:  76; 6HR MAX TEMP:  85;

MOREHEAD APT*    N/A     81  66  61 CALM      29.92R
ASHLAND*         N/A     80  71  74 CALM      29.88S
$$

KYZ035-036-041-042-044-050-067-078-099-260100
...CENTRAL KENTUCKY...

CITY           SKY/WX    TMP DP  RH WIND       PRES   REMARKS
MT STERLING*     N/A     81  68  65 CALM      29.92R
FLEMING/MASON*   N/A     80  64  59 SW3       29.90S
DANVILLE*        N/A     81  64  57 W3        29.92R
LEXINGTON        N/A     82  66  58 SW3       29.90R
6HR MIN TEMP:  82; 6HR MAX TEMP:  87;

FRANKFORT        N/A     83  62  49 SW3       29.88R
6HR MIN TEMP:  83; 6HR MAX TEMP:  87;

LOUISVILLE     MOCLDY    85  58  39 SW7       29.87R
6HR MIN TEMP:  85; 6HR MAX TEMP:  89;

LEBANON*         N/A     82  63  51 CALM      29.90R
GLASGOW*         N/A     81  65  56 W3        29.90R
BOWLING GREEN    N/A     85  62  46 W5        29.89R
6HR MIN TEMP:  85; 6HR MAX TEMP:  90;

$$

KYZ091>093-OHZ055-061-077-WVZ005-015-034-035-042-260100
...SOUTHERN OHIO/WEST VIRGINIA...

CITY           SKY/WX    TMP DP  RH WIND       PRES   REMARKS
COVINGTON        N/A     81  59  47 SW3       29.89R
COLUMBUS         N/A     85  49  28 SW8       29.86S
DAYTON           N/A     81  57  43 SW10      29.89R
WILMINGTON       N/A     78  59  51 SW8       29.88S
HUNTINGTON     MOCLDY    81  70  69 E7        29.89R
CHARLESTON     MOCLDY    82  67  60 VRB3      29.90R
PINEVILLE*       N/A     69  67  94 MISG      30.02R
BECKLEY          N/A     75  60  59 S7        30.01R
BLUEFIELD        N/A     72  63  73 S6        30.04S
LOGAN CO APT*    N/A     79  66  65 CALM      29.94S
$$

VAZ002-007-008-TNZ017-027-036-066-071-260100
...SOUTHWEST VIRGINIA/EAST TENNESSEE...

CITY           SKY/WX    TMP DP  RH WIND       PRES   REMARKS
WISE*            N/A     75  63  64 S7        30.03S
JONESVILLE*      N/A     73  70  88 CALM      29.99S
ABINGDON*        N/A     77  66  68 S5        30.01R
BRISTOL        LGT RAIN  78  66  66 S8        29.97R
MORRISTOWN*    CLEAR     79  68  69 CALM      29.95S
SEVIERVILLE*   CLEAR     79  70  73 CALM      29.93F
KNOXVILLE      CLOUDY    81  69  67 S9        29.92F
LAFOLLETTE*    MOCLDY    81  66  61 S10       29.97R
OAK RIDGE      MOCLDY    78  68  71 CALM      29.94S
CROSSVILLE       N/A     74  62  66 CALM      29.98R
NASHVILLE      CLOUDY    79  66  64 CALM      29.91R
$$

...KEY TO REMARKS...
VSB - VISIBILITY IN MILES
WCI - WIND CHILL INDEX
HX  - HEAT INDEX

$$



USA.gov is the U.S. government's official web portal to all federal, state and local government web resources and services.